Pittsburg, KS

8:27 AM CST on December 03, 2016 (GMT -0600)
Atkinson Municipal

Weather History for KPTS - January, 2014

Change the Weather History Date:

Friday, January 24, 2014

  Actual Average (KJLN) Record (KJLN)
Temperature  
Mean Temperature 21 °F 35 °F  
Max Temperature 37 °F 45 °F 77 °F (1950)
Min Temperature 5 °F 25 °F -7 °F (1963)
Degree Days  
Heating Degree Days 44 30  
Month to date heating degree days 720  
Since 1 July heating degree days 2337  
Cooling Degree Days 0 0  
Month to date cooling degree days 0  
Year to date cooling degree days 0  
Moisture  
Dew Point 5 °F    
Average Humidity 47    
Maximum Humidity 84    
Minimum Humidity 27    
Precipitation  
Precipitation 0.00 in 0.06 in 0.30 in (1967)
Month to date precipitation 1.58  
Year to date precipitation 1.58  
Sea Level Pressure  
Sea Level Pressure 30.31 in    
Wind  
Wind Speed 12 mph (SW)    
Max Wind Speed 26 mph    
Max Gust Speed 37 mph    
Visibility 10 miles    
Events      
T = Trace of Precipitation, MM = Missing Value Source: NWS Daily Summary

Daily Weather History Graph

Daily Weather History Graph

Search for Another Location

Airport or City:

Trip Planner

Search our weather history database for the weather conditions in past years. The results will help you decide how hot, cold, wet, or windy it might be!

Date:

Astronomy

Jan. 24, 2014 Rise Set
Actual Time 7:28 AM CST 5:34 PM CST
Civil Twilight 7:00 AM CST 6:02 PM CST
Nautical Twilight 6:28 AM CST 6:34 PM CST
Astronomical Twilight 5:57 AM CST 7:05 PM CST
Moon 12:57 AM CST (1/24) 11:52 AM CST (1/24)
Length of Visible Light 11h 02m
Length of Day
10h 06m
Last Quarter, 44% of the Moon is Illuminated
Jan 24
Last Quarter
Jan 30
New
Feb 6
First Quarter
Feb 14
Full
Feb 22
Last Quarter

Hourly Weather History & Observations

Time (CST) Temp. Windchill Dew Point Humidity Pressure Visibility Wind Dir Wind Speed Gust Speed Precip Events Conditions
12:15 AM 5.2 °F -1.9 °F 1.2 °F 84% 30.72 in 10.0 mi SW 3.5 mph - N/A   Clear
12:35 AM 6.4 °F -2.4 °F 1.8 °F 81% 30.71 in 10.0 mi WSW 4.6 mph - N/A   Clear
12:55 AM 8.2 °F -3.0 °F 1.6 °F 74% 30.70 in 10.0 mi WSW 6.9 mph - N/A   Clear
1:15 AM 10.0 °F 0.4 °F 2.7 °F 72% 30.68 in 10.0 mi SW 5.8 mph - N/A   Clear
1:35 AM 10.4 °F 0.8 °F 2.8 °F 72% 30.67 in 10.0 mi SW 5.8 mph - N/A   Clear
1:55 AM 10.4 °F -0.4 °F 2.3 °F 70% 30.67 in 10.0 mi WSW 6.9 mph - N/A   Clear
2:15 AM 10.4 °F -0.4 °F 2.1 °F 69% 30.66 in 10.0 mi SW 6.9 mph - N/A   Clear
2:35 AM 10.4 °F 0.8 °F 2.1 °F 69% 30.65 in 10.0 mi SW 5.8 mph - N/A   Clear
2:55 AM 10.4 °F 0.8 °F 1.8 °F 68% 30.64 in 10.0 mi SW 5.8 mph - N/A   Clear
3:15 AM 9.3 °F -0.5 °F 0.9 °F 69% 30.64 in 10.0 mi SW 5.8 mph - N/A   Clear
3:35 AM 10.4 °F -0.4 °F 2.1 °F 69% 30.63 in 10.0 mi SW 6.9 mph - N/A   Clear
3:55 AM 10.4 °F -1.5 °F 1.6 °F 68% 30.62 in 10.0 mi SW 8.1 mph - N/A   Clear
4:15 AM 9.9 °F -1.1 °F 0.3 °F 65% 30.61 in 10.0 mi SSW 6.9 mph - N/A   Clear
4:35 AM 8.1 °F -3.2 °F -0.4 °F 68% 30.60 in 10.0 mi SSW 6.9 mph - N/A   Clear
4:55 AM 8.6 °F -3.7 °F 0.1 °F 68% 30.59 in 10.0 mi SSW 8.1 mph - N/A   Clear
5:15 AM 10.4 °F -2.4 °F 1.4 °F 67% 30.58 in 10.0 mi SW 9.2 mph - N/A   Clear
5:35 AM 10.4 °F -2.4 °F 0.3 °F 64% 30.58 in 10.0 mi SW 9.2 mph - N/A   Clear
5:55 AM 10.4 °F -4.1 °F 0.3 °F 64% 30.57 in 10.0 mi SW 11.5 mph - N/A   Clear
6:15 AM 10.4 °F -4.1 °F 0.7 °F 65% 30.56 in 10.0 mi SW 11.5 mph - N/A   Clear
6:35 AM 10.4 °F -2.4 °F 1.2 °F 66% 30.55 in 10.0 mi SW 9.2 mph - N/A   Clear
6:55 AM 10.4 °F -1.5 °F 1.2 °F 66% 30.55 in 10.0 mi SSW 8.1 mph - N/A   Clear
7:15 AM 10.4 °F -2.4 °F 1.8 °F 68% 30.54 in 10.0 mi SW 9.2 mph - N/A   Clear
7:35 AM 10.4 °F -4.8 °F 2.1 °F 69% 30.53 in 10.0 mi SW 12.7 mph 18.4 mph N/A   Clear
7:55 AM 10.4 °F -4.1 °F 1.4 °F 67% 30.52 in 10.0 mi SW 11.5 mph 18.4 mph N/A   Clear
8:15 AM 11.7 °F -5.0 °F 1.2 °F 63% 30.51 in 10.0 mi SW 16.1 mph 21.9 mph N/A   Clear
8:35 AM 13.1 °F -3.1 °F 1.9 °F 61% 30.49 in 10.0 mi SW 16.1 mph - N/A   Clear
8:55 AM 14.4 °F -2.5 °F 2.8 °F 60% 30.46 in 10.0 mi SSW 18.4 mph 25.3 mph N/A   Clear
9:15 AM 15.6 °F -0.4 °F 3.6 °F 59% 30.47 in 10.0 mi SW 17.3 mph 26.5 mph N/A   Clear
9:35 AM 17.1 °F 2.5 °F 3.6 °F 56% 30.46 in 10.0 mi SW 15.0 mph 23.0 mph N/A   Clear
9:55 AM 19.2 °F 5.3 °F 3.9 °F 51% 30.45 in 10.0 mi SW 15.0 mph 23.0 mph N/A   Clear
10:15 AM 20.8 °F 5.1 °F 2.7 °F 45% 30.44 in 10.0 mi SW 20.7 mph 27.6 mph N/A   Clear
10:35 AM 21.6 °F 6.5 °F 1.2 °F 41% 30.42 in 10.0 mi SW 19.6 mph 27.6 mph N/A   Clear
10:55 AM 23.0 °F 7.6 °F 0.9 °F 38% 30.41 in 10.0 mi SW 21.9 mph 28.8 mph N/A   Clear
11:15 AM 23.9 °F 9.5 °F 0.7 °F 37% 30.40 in 10.0 mi SW 19.6 mph 28.8 mph N/A   Clear
11:35 AM 25.2 °F 10.8 °F 1.6 °F 36% 30.37 in 10.0 mi SW 20.7 mph 27.6 mph N/A   Clear
11:55 AM 27.5 °F 14.2 °F 1.9 °F 33% 30.35 in 10.0 mi SW 19.6 mph 31.1 mph N/A   Clear
12:15 PM 30.2 °F 17.8 °F 2.1 °F 30% 30.31 in 10.0 mi SW 19.6 mph 27.6 mph N/A   Clear
12:35 PM 30.7 °F 17.8 °F 1.9 °F 29% 30.27 in 10.0 mi SW 21.9 mph 28.8 mph N/A   Clear
12:55 PM 30.9 °F 16.9 °F 0.5 °F 27% 30.25 in 10.0 mi SSW 26.5 mph 33.4 mph N/A   Clear
1:15 PM 32.2 °F 18.6 °F 1.4 °F 27% 30.22 in 10.0 mi SW 26.5 mph 34.5 mph N/A   Clear
1:35 PM 32.9 °F 19.6 °F 2.3 °F 27% 30.19 in 10.0 mi SSW 26.5 mph 36.8 mph N/A   Clear
1:55 PM 33.8 °F 21.6 °F 3.2 °F 28% 30.18 in 10.0 mi SW 23.0 mph 34.5 mph N/A   Clear
2:15 PM 34.2 °F 21.8 °F 4.5 °F 29% 30.16 in 10.0 mi SW 24.2 mph 31.1 mph N/A   Clear
2:35 PM 35.6 °F 24.0 °F 5.7 °F 29% 30.14 in 10.0 mi SW 23.0 mph 31.1 mph N/A   Clear
2:55 PM 35.6 °F 24.8 °F 5.7 °F 29% 30.13 in 10.0 mi SW 19.6 mph 28.8 mph N/A   Clear
3:15 PM 35.6 °F 24.2 °F 5.4 °F 28% 30.11 in 10.0 mi SW 21.9 mph 29.9 mph N/A   Clear
3:35 PM 35.6 °F 24.5 °F 5.5 °F 28% 30.09 in 10.0 mi SW 20.7 mph 32.2 mph N/A   Clear
3:55 PM 35.8 °F 24.8 °F 5.9 °F 29% 30.09 in 10.0 mi SW 20.7 mph 26.5 mph N/A   Clear
4:15 PM 37.4 °F 26.9 °F 7.3 °F 29% 30.09 in 10.0 mi SW 20.7 mph 26.5 mph N/A   Clear
4:35 PM 37.9 °F 27.9 °F 7.5 °F 28% 30.08 in 10.0 mi WSW 19.6 mph 28.8 mph N/A   Clear
4:55 PM 37.9 °F 27.6 °F 7.5 °F 28% 30.08 in 10.0 mi SW 20.7 mph 28.8 mph N/A   Clear
5:15 PM 37.9 °F 27.3 °F 8.2 °F 29% 30.08 in 10.0 mi SW 21.9 mph 33.4 mph N/A   Clear
5:35 PM 37.6 °F 27.7 °F 8.6 °F 30% 30.08 in 10.0 mi WSW 18.4 mph 28.8 mph N/A   Clear
5:55 PM 36.7 °F 26.6 °F 8.4 °F 31% 30.07 in 10.0 mi SW 18.4 mph 24.2 mph N/A   Clear
6:15 PM 36.9 °F 26.8 °F 9.0 °F 32% 30.07 in 10.0 mi SW 18.4 mph 24.2 mph N/A   Clear
6:35 PM 37.8 °F 28.6 °F 9.7 °F 31% 30.07 in 10.0 mi SW 16.1 mph 23.0 mph N/A   Clear
6:55 PM 37.9 °F 28.5 °F 9.9 °F 31% 30.05 in 10.0 mi SW 17.3 mph 24.2 mph N/A   Clear
7:15 PM 37.4 °F 28.2 °F 9.9 °F 32% 30.04 in 10.0 mi SW 16.1 mph 26.5 mph N/A   Clear
7:35 PM 36.0 °F 26.0 °F 9.0 °F 33% 30.04 in 10.0 mi SW 17.3 mph 24.2 mph N/A   Clear
7:55 PM 35.6 °F 25.5 °F 9.1 °F 33% 30.04 in 10.0 mi SW 17.3 mph 23.0 mph N/A   Clear
8:15 PM 35.6 °F 25.9 °F 9.7 °F 34% 30.03 in 10.0 mi SW 16.1 mph 20.7 mph N/A   Clear
8:35 PM 35.6 °F 25.2 °F 10.0 °F 35% 30.02 in 10.0 mi SW 18.4 mph - N/A   Clear
8:55 PM 35.6 °F 25.2 °F 9.9 °F 34% 30.01 in 10.0 mi SW 18.4 mph 24.2 mph N/A   Clear
9:15 PM 35.6 °F 25.2 °F 9.9 °F 34% 29.99 in 10.0 mi SW 18.4 mph 24.2 mph N/A   Clear
9:35 PM 35.6 °F 25.2 °F 9.7 °F 34% 29.98 in 10.0 mi SW 18.4 mph 24.2 mph N/A   Clear
9:55 PM 35.6 °F 25.5 °F 9.5 °F 34% 29.97 in 10.0 mi SW 17.3 mph 26.5 mph N/A   Clear
10:15 PM 35.6 °F 25.5 °F 9.3 °F 34% 29.95 in 10.0 mi SW 17.3 mph 26.5 mph N/A   Clear
10:35 PM 35.6 °F 25.9 °F 9.5 °F 34% 29.94 in 10.0 mi SW 16.1 mph 25.3 mph N/A   Clear
10:55 PM 35.6 °F 24.8 °F 9.7 °F 34% 29.94 in 10.0 mi SW 19.6 mph 24.2 mph N/A   Clear
11:15 PM 35.6 °F 25.5 °F 9.7 °F 34% 29.93 in 10.0 mi SW 17.3 mph 24.2 mph N/A   Scattered Clouds
11:35 PM 35.6 °F 25.9 °F 10.0 °F 35% 29.92 in 10.0 mi WSW 16.1 mph 25.3 mph N/A   Scattered Clouds
11:55 PM 35.6 °F 25.5 °F 10.4 °F 35% 29.92 in 10.0 mi SW 17.3 mph 25.3 mph N/A   Scattered Clouds